Berlin, NH

9:59 PM EDT on March 30, 2017 (GMT -0400)
Berlin Municipal

Weather History for KBML - February, 2013

Change the Weather History Date:

Wednesday, February 13, 2013

  Actual Average Record
Temperature  
Mean Temperature 30 °F -  
Max Temperature 33 °F 26 °F 34 °F (1998)
Min Temperature 27 °F 0 °F -22 °F (2003)
Degree Days  
Heating Degree Days 35    
Moisture  
Dew Point 22 °F    
Average Humidity 73    
Maximum Humidity 85    
Minimum Humidity 61    
Precipitation  
Precipitation 0.00 in - - ()
Sea Level Pressure  
Sea Level Pressure 29.77 in    
Wind  
Wind Speed 3 mph (WNW)    
Max Wind Speed 7 mph    
Max Gust Speed -    
Visibility 10 miles    
Events Snow    
Averages and records for this station are not official NWS values.
T = Trace of Precipitation, MM = Missing Value Source: NWS Daily Summary

Daily Weather History Graph

Daily Weather History Graph

Search for Another Location

Airport or City:

Trip Planner

Search our weather history database for the weather conditions in past years. The results will help you decide how hot, cold, wet, or windy it might be!

Date:

Astronomy

Feb. 13, 2013 Rise Set
Actual Time 6:47 AM EST 5:10 PM EST
Civil Twilight 6:17 AM EST 5:41 PM EST
Nautical Twilight 5:43 AM EST 6:15 PM EST
Astronomical Twilight 5:09 AM EST 6:49 PM EST
Moon 8:04 AM EST (2/13) 9:23 PM EST (2/13)
Length of Visible Light 11h 23m
Length of Day
10h 23m
Waxing Crescent, 13% of the Moon is Illuminated
Feb 13
Waxing Crescent
Feb 17
First Quarter
Feb 25
Full
Mar 4
Last Quarter
Mar 11
New

Hourly Weather History & Observations

Time (EST) Temp. Windchill Dew Point Humidity Pressure Visibility Wind Dir Wind Speed Gust Speed Precip Events Conditions
12:52 AM 30.9 °F 26.2 °F 23.0 °F 72% 29.75 in 8.0 mi Variable 4.6 mph - 0.00 in Snow Light Snow
1:52 AM 30.9 °F 25.2 °F 23.0 °F 72% 29.76 in 10.0 mi Variable 5.8 mph - 0.00 in   Overcast
2:52 AM 30.0 °F 25.2 °F 23.0 °F 75% 29.77 in 10.0 mi Variable 4.6 mph - N/A   Overcast
3:52 AM 30.0 °F - 21.9 °F 72% 29.78 in 10.0 mi Calm Calm - N/A   Overcast
4:52 AM 30.0 °F 25.2 °F 21.9 °F 72% 29.78 in 10.0 mi West 4.6 mph - N/A   Overcast
5:52 AM 30.0 °F 25.2 °F 21.9 °F 72% 29.78 in 10.0 mi WNW 4.6 mph - N/A   Overcast
6:52 AM 28.9 °F 25.2 °F 21.9 °F 75% 29.79 in 10.0 mi NW 3.5 mph - N/A   Overcast
7:52 AM 30.0 °F - 21.9 °F 72% 29.80 in 10.0 mi Calm Calm - N/A   Overcast
8:52 AM 30.0 °F 25.2 °F 21.9 °F 72% 29.81 in 10.0 mi Variable 4.6 mph - N/A   Overcast
9:52 AM 30.9 °F 26.2 °F 21.9 °F 69% 29.81 in 10.0 mi NW 4.6 mph - N/A   Overcast
10:52 AM 32.0 °F 28.7 °F 21.9 °F 66% 29.81 in 10.0 mi Variable 3.5 mph - N/A   Overcast
11:52 AM 32.0 °F 25.6 °F 21.9 °F 66% 29.79 in 10.0 mi NW 6.9 mph - N/A   Overcast
12:52 PM 33.1 °F 28.7 °F 21.9 °F 64% 29.77 in 8.0 mi West 4.6 mph - 0.00 in Snow Light Snow
1:52 PM 33.1 °F 28.7 °F 21.0 °F 61% 29.76 in 10.0 mi Variable 4.6 mph - 0.00 in   Overcast
2:52 PM 33.1 °F 28.7 °F 21.9 °F 64% 29.76 in 10.0 mi West 4.6 mph - N/A   Overcast
3:52 PM 33.1 °F - 21.9 °F 64% 29.75 in 10.0 mi Calm Calm - N/A   Overcast
4:52 PM 30.9 °F - 23.0 °F 72% 29.75 in 10.0 mi Calm Calm - 0.00 in   Overcast
5:52 PM 30.0 °F - 23.0 °F 75% 29.75 in 10.0 mi Calm Calm - N/A   Overcast
6:52 PM 28.9 °F - 24.1 °F 82% 29.76 in 10.0 mi Calm Calm - N/A   Overcast
7:52 PM 28.0 °F - 23.0 °F 81% 29.76 in 10.0 mi Calm Calm - N/A   Overcast
8:52 PM 27.0 °F - 23.0 °F 85% 29.75 in 10.0 mi Calm Calm - N/A   Overcast
9:52 PM 28.9 °F - 23.0 °F 78% 29.76 in 10.0 mi Calm Calm - N/A   Overcast
10:52 PM 28.0 °F - 24.1 °F 85% 29.76 in 10.0 mi Calm Calm - N/A   Overcast
11:52 PM 27.0 °F - 23.0 °F 85% 29.75 in 10.0 mi Calm Calm - N/A   Overcast